Das Wetter in  D-61279 Heinzenberg / Taunus





Wetter Minimum- & Maximum-Werte im Juli 2016

Standort: Heinzenberg / Taunus - Höhe 297 m         8 24' 1" Ost 50 21' 51" Nord
(   3-stündige Aktualisierung    letzte Aktualisierung um 19:04 am 31.07.2016  )


Messgrösse

Minimum

Maximum

Durchschnitt

Temperatur West /
Luftfeuchte West
Anklicken für Monats-Diagramm

8,2 C

04:44
04.07.2016

30 %

17:39
20.07.2016

35,8 C

16:49
20.07.2016

91 %

08:49
04.07.2016

Temp

19,1 C

Feuchte

71 %

Temperatur Ost /
Luftfeuchte Ost
Anklicken für Monats-Diagramm

8,4 C

04:34
04.07.2016

--

--
--

35,9 C

16:44
20.07.2016

--

--
--

19,4 C

--

Luftdruck Anklicken für Monats-Diagramm

1008,3 hPa

03:45
11.07.2016

1026,3 hPa

04:45
16.07.2016

1017,0 hPa

Taupunkt

5,4 C

06:22
07.07.2016

20,0 C

15:05
21.07.2016

13,3 C

Windchill
( gefühlte Temperatur )

5,1 C

12:07
13.07.2016

35,8 C

16:49
20.07.2016

18,1 C

Windgeschwindigkeit /
Windrichtung
Anklicken für Monats-Diagramm

---

48,3 km/h / W

19:05
05.07.2016

7,7 km/h
NW

Helligkeit /
Sonnenschein
Anklicken für Monats-Diagramm
Anklicken für Monats-Diagramm

Sonnenschein:

216:34 Stunden

Max: 13:45 Std am
18.07.2016

128 klux

14:07
02.07.2016

42 klux

Solarstrahlung Anklicken für Monats-Diagramm

---

876 W/m

14:07
02.07.2016

309 W/m

Regenmenge
    Juli 2016
Anklicken für Monats-Diagramm

Insgesamt 71,9 l/m

in 25:25 Stunden
an 13 Tagen

25,8 l/m

21:48
24.07.2016

Gesamtmenge

71,9 l/m

Regen-Tage
    Juli 2016
Anklicken für Monats-Diagramm

>   0 mm/Tag

>   2 mm/Tag

>   5 mm/Tag

> 10 mm/Tag

> 20 mm/Tag

13 Tage     
5 Tage     
4 Tage     
2 Tage     
2 Tage     

Eisige Tage Juli 2016 / 2015

Tmin ≤ -10C     

0 Tage

/

0 Tage

Eistage Juli 2016 / 2015

Tmax <     0C     

0 Tage

/

0 Tage

Frosttage Juli 2016 / 2015

Tmin ≤     0C     

0 Tage

/

0 Tage

Kalte Tage Juli 2016 / 2015

Tmax <   10C     

0 Tage

/

0 Tage

Warme Tage Juli 2016 / 2015

Tmax ≥   20C     

30 Tage

/

28 Tage

Sommertage Juli 2016 / 2015

Tmax ≥   25C     

18 Tage

/

19 Tage

Heisse Tage Juli 2016 / 2015

Tmax ≥   30C     

4 Tage

/

13 Tage


Monatsdiagramm Juli 2016

Die Kurven zeigen den Durchschnittswert des jeweiligen Tages an


Wetter-Monatsübersicht Juli 2016
Datum
  Temperatur
   Luftdruck
   Wind
  Regen
   Luftfeuchte
   Helligkeit

Sonnen-
schein


Temp.

Min.
Temp.

Max.
Temp.


Luftdruck

Min.
Luftdruck

Max.
Luftdruck

-Geschw.
Haupt-Richtg.

Max.
Wind

Menge /
Dauer


Feuchte

Min.
Feuchte

Max.
Feuchte


Helligkeit

Max.
Helligkeit

1.
Juli
19,7 C17,0 C
05:06
23,8 C
15:16
1014,3 hPa1012,7 hPa
22:37
1015,0 hPa
05:11
14,4 km/h
W-SW
39,2 km/h
14:41  
---
71 %59 %
16:51
79 %
06:16
34,9 klux125,0 klux
15:01
3:44 Std 
2.
Juli
16,2 C11,4 C
23:53
20,4 C
16:22
1014,6 hPa1010,7 hPa
04:07
1019,8 hPa
23:53
11,8 km/h
W-SW
46,3 km/h
20:17  
1,1 l/m
3:30 Stunden
73 %51 %
17:32
87 %
12:32
30 klux128 klux
14:07
3:05 Std 
3.
Juli
13,3 C8,8 C
03:53
19,6 C
15:28
1020,6 hPa1019,8 hPa
00:03
1022,9 hPa
23:59
6,8 km/h
W-SW
32,4 km/h
15:53  
5,3 l/m
2:00 Stunden
78 %60 %
15:33
87 %
07:33
39 klux126 klux
15:08
5:20 Std 
4.
Juli
15,2 C8,2 C
04:44
21,4 C
17:09
1020,6 hPa1017,7 hPa
19:54
1023,2 hPa
03:34
4,8 km/h
W-SW
23,6 km/h
12:19  
---
78 %61 %
12:14
91 %
08:49
37 klux122 klux
12:14
5:25 Std 
5.
Juli
18,0 C15,0 C
23:56
22,9 C
16:25
1015,7 hPa1014,3 hPa
16:25
1018,3 hPa
23:56
13,7 km/h
W
48,3 km/h
19:05  
---
74 %57 %
16:30
84 %
02:30
34 klux122 klux
13:50
3:59 Std 
6.
Juli
15,9 C10,3 C
06:01
22,2 C
17:01
1019,9 hPa1017,3 hPa
00:06
1021,6 hPa
23:57
11,6 km/h
NW
29,8 km/h
11:26  
---
68 %46 %
17:56
86 %
06:36
56 klux121 klux
14:06
11:50 Std 
7.
Juli
17,2 C8,3 C
06:22
25,9 C
16:22
1020,8 hPa1018,2 hPa
18:57
1023,3 hPa
06:52
3,3 km/h
NW
18,5 km/h
14:52  
---
65 %35 %
13:47
85 %
07:52
55 klux116 klux
11:37
10:35 Std 
8.
Juli
18,5 C10,6 C
05:58
25,7 C
14:43
1016,5 hPa1014,0 hPa
14:43
1019,4 hPa
00:43
9,8 km/h
W
36,6 km/h
14:33  
---
25 Minuten
68 %46 %
14:23
84 %
07:13
40 klux116 klux
14:23
6:55 Std 
9.
Juli
20,2 C16,0 C
02:38
26,6 C
17:08
1018,7 hPa1017,1 hPa
18:43
1020,2 hPa
07:28
7,7 km/h
W-NW
21,8 km/h
13:03  
---
67 %50 %
15:28
80 %
06:48
45 klux120 klux
12:03
7:35 Std 
10.
Juli
22,5 C13,6 C
05:44
31,4 C
17:14
1013,0 hPa1008,4 hPa
18:24
1018,1 hPa
00:19
7,9 km/h
W-SW
29,9 km/h
15:14  
---
65 %42 %
15:59
85 %
07:24
52 klux108 klux
12:24
11:05 Std 
11.
Juli
21,6 C17,7 C
23:56
25,9 C
15:25
1010,1 hPa1008,3 hPa
03:45
1012,8 hPa
23:56
13,0 km/h
W
35,7 km/h
13:20  
---
65 %51 %
15:25
77 %
08:20
40 klux114 klux
11:50
5:55 Std 
12.
Juli
18,9 C13,6 C
05:41
25,8 C
16:21
1012,4 hPa1010,0 hPa
17:01
1013,9 hPa
09:06
8,4 km/h
W-SW
29,5 km/h
14:26  
---
64 %38 %
15:51
81 %
07:51
49 klux121 klux
13:21
9:16 Std 
13.
Juli
15,1 C11,9 C
06:52
20,8 C
17:32
1013,5 hPa1012,1 hPa
01:52
1016,5 hPa
22:48
7,3 km/h
W-NW
41,4 km/h
11:57  
1,4 l/m
1:20 Stunden
76 %57 %
16:57
89 %
12:57
40 klux124 klux
14:17
6:14 Std 
14.
Juli
14,5 C10,7 C
06:53
20,9 C
17:13
1018,2 hPa1015,5 hPa
00:28
1021,8 hPa
23:59
13,9 km/h
W-NW
33,7 km/h
12:58  
0,2 l/m
30 Minuten
69 %46 %
17:18
84 %
00:53
45 klux121 klux
12:58
7:26 Std 
15.
Juli
15,2 C10,3 C
06:54
23,0 C
16:09
1024,6 hPa1021,8 hPa
00:04
1025,8 hPa
23:55
10,6 km/h
NW
30,8 km/h
14:09  
---
66 %44 %
16:14
83 %
06:59
42 klux122 klux
12:49
5:25 Std 
16.
Juli
15,9 C9,3 C
04:45
21,4 C
17:30
1025,0 hPa1022,9 hPa
20:30
1026,3 hPa
04:45
6,5 km/h
NW
24,1 km/h
14:00  
---
71 %57 %
12:50
85 %
07:50
32 klux93 klux
12:45
3:30 Std 
17.
Juli
20,4 C14,6 C
06:21
26,4 C
18:21
1021,2 hPa1019,1 hPa
18:21
1023,4 hPa
02:31
7,8 km/h
NW
26,5 km/h
12:21  
---
71 %57 %
16:31
86 %
07:16
40,9 klux118,0 klux
12:26
6:50 Std 
18.
Juli
21,7 C14,4 C
06:12
29,9 C
17:57
1021,0 hPa1019,7 hPa
17:57
1022,5 hPa
06:47
5,7 km/h
W-NW
27,2 km/h
15:57  
---
63 %39 %
17:57
88 %
08:27
59 klux112 klux
14:57
13:45 Std 
19.
Juli
23,5 C13,3 C
06:38
34,3 C
16:18
1020,1 hPa1017,0 hPa
21:18
1022,7 hPa
06:38
2,2 km/h
SO
15,7 km/h
15:32  
---
58 %34 %
16:18
83 %
07:43
58 klux106 klux
13:38
13:34 Std 
20.
Juli
25,5 C14,4 C
06:04
35,8 C
16:49
1014,5 hPa1010,0 hPa
19:29
1019,0 hPa
01:04
7,9 km/h
SO
31,3 km/h
12:34  
---
55 %30 %
17:39
81 %
07:59
58 klux102 klux
13:29
12:55 Std 
21.
Juli
22,2 C18,4 C
10:45
28,8 C
16:10
1014,6 hPa1012,0 hPa
00:00
1016,9 hPa
10:45
5,1 km/h
W-SW
35,0 km/h
04:30  
4,3 l/m
4:35 Stunden
72 %56 %
16:15
86 %
12:55
29 klux109 klux
15:40
2:40 Std 
22.
Juli
22,1 C17,5 C
04:51
31,6 C
15:21
1014,9 hPa1012,3 hPa
15:21
1016,7 hPa
00:01
2,7 km/h
SO
24,3 km/h
17:26  
21,6 l/m
2:45 Stunden
75 %42 %
16:16
89 %
06:21
40 klux114 klux
13:06
6:00 Std 
23.
Juli
20,1 C17,4 C
05:52
27,1 C
16:17
1016,7 hPa1015,8 hPa
00:02
1017,9 hPa
23:58
1,7 km/h
NO
21,2 km/h
00:17  
9,4 l/m
4:20 Stunden
83 %61 %
16:12
91 %
06:22
25 klux118 klux
14:27
1:45 Std 
24.
Juli
21,7 C17,1 C
06:18
29,8 C
15:53
1017,6 hPa1015,7 hPa
18:03
1019,1 hPa
02:58
3,6 km/h
NW
17,1 km/h
15:58  
25,8 l/m
2:25 Stunden
75 %47 %
15:58
90 %
05:08
44 klux116 klux
13:38
6:45 Std 
25.
Juli
22,5 C17,8 C
06:33
29,0 C
16:13
1017,6 hPa1016,7 hPa
16:13
1018,9 hPa
08:43
6,9 km/h
NW
24,5 km/h
13:13  
---
74 %47 %
17:38
91 %
08:08
52 klux113 klux
13:13
11:10 Std 
26.
Juli
21,4 C17,0 C
07:14
26,8 C
16:49
1018,6 hPa1017,0 hPa
16:49
1020,2 hPa
07:14
5,4 km/h
NW
18,1 km/h
12:54  
---
74 %56 %
16:49
87 %
07:34
43 klux114 klux
12:19
8:21 Std 
27.
Juli
19,8 C16,2 C
04:10
25,1 C
15:34
1016,7 hPa1015,1 hPa
15:34
1019,0 hPa
00:50
8,4 km/h
W-NW
27,3 km/h
16:55  
1,4 l/m
50 Minuten
72 %49 %
18:10
90 %
08:05
47 klux117 klux
12:50
8:59 Std 
28.
Juli
19,0 C15,3 C
07:06
24,3 C
16:16
1015,5 hPa1013,2 hPa
17:36
1017,2 hPa
05:26
6,1 km/h
W-SW
25,8 km/h
15:56  
1,1 l/m
1:25 Stunden
76 %58 %
16:01
85 %
07:21
31 klux118 klux
14:16
3:20 Std 
29.
Juli
18,8 C15,6 C
06:02
23,0 C
17:47
1013,1 hPa1011,2 hPa
17:47
1014,1 hPa
06:02
6,8 km/h
W-SW
30,8 km/h
16:57  
0,5 l/m
1:10 Stunden
80 %68 %
13:17
87 %
01:37
29 klux121 klux
12:42
3:41 Std 
30.
Juli
19,8 C15,4 C
02:28
25,9 C
16:13
1012,5 hPa1011,1 hPa
18:13
1013,1 hPa
02:28
9,2 km/h
W-NW
33,0 km/h
13:33  
---
72 %49 %
15:03
88 %
05:58
43 klux123 klux
14:18
5:55 Std 
31.
Juli
17,2 C13,2 C
23:50
22,4 C
15:24
1013,3 hPa1011,7 hPa
11:04
1017,5 hPa
23:50
7,8 km/h
NW
30,1 km/h
19:39  
---
10 Minuten
76 %60 %
15:29
87 %
07:39
30 klux117 klux
12:14
3:35 Std 



Juli
2016

Temperatur

  

Luftdruck

  

Wind

  

Regen

  

Luftfeuchte

  

Helligkeit

Sonnen-
schein

Min

Max

Min

Max

Max

Max

Min

Max

Max

Max

19,1 C

8,2 C

04:44 Uhr
04.07.2016

35,8 C

16:49 Uhr
20.07.2016

1017,0 hPa

1008,3 hPa

03:45 Uhr
11.07.2016

1026,3 hPa

04:45 Uhr
16.07.2016

7,7 km/h

NW

48,3 km/h

19:05 Uhr
05.07.2016

25,8 l/m

2:25 Stunden
24.07.2016

71 %

30 %

17:39 Uhr
20.07.2016

91 %

08:49 Uhr
04.07.2016

42 klux

128,0 klux

14:07 Uhr
02.07.2016

13:45 Std

am
18.07.2016

Gesamt

Gesamt

71,9 l/m

13 Tage
25:25 h

216:34 Std


Wetter-Diagramme Juli 2016     Heinzenberg / Taunus   
TemperaturLuftfeuchte
SolarstrahlungLuftdruck
HelligkeitSonnenschein
RegenmengeRegendauer
Wind-GeschwindigkeitWind-Richtung